Change the Weather History Date:

Thursday, October 10, 2013

  Actual Average Record
Temperature  
Mean Temperature 57 °F -  
Max Temperature 75 °F 56 °F 82 °F (1955)
Min Temperature 41 °F 37 °F 18 °F (1964)
Degree Days  
Heating Degree Days 8    
Growing Degree Days 7 (Base 50)    
Moisture  
Dew Point 46 °F    
Average Humidity 77    
Maximum Humidity 97    
Minimum Humidity 34    
Precipitation  
Precipitation 0.00 in - - ()
Sea Level Pressure  
Sea Level Pressure 30.05 in    
Wind  
Wind Speed 2 mph (South)    
Max Wind Speed 10 mph    
Max Gust Speed -    
Visibility 10 miles    
Events      
Averages and records for this station are not official NWS values.
T = Trace of Precipitation, MM = Missing Value Source: NWS Daily Summary

Daily Weather History Graph

Daily Weather History Graph

Search for Another Location

Airport or City:

Trip Planner

Search our weather history database for the weather conditions in past years. The results will help you decide how hot, cold, wet, or windy it might be!

Date:

Astronomy

Oct. 10, 2013 Rise Set
Actual Time 7:14 AM CDT 6:25 PM CDT
Civil Twilight 6:44 AM CDT 6:55 PM CDT
Nautical Twilight 6:09 AM CDT 7:30 PM CDT
Astronomical Twilight 5:34 AM CDT 8:05 PM CDT
Moon 1:20 PM CDT (10/10) 10:51 PM CDT (10/10)
Length of Visible Light 12h 11m
Length of Day
11h 10m
Waxing Crescent, 36% of the Moon is Illuminated
Oct 10
Waxing Crescent
Oct 11
First Quarter
Oct 18
Full
Oct 26
Last Quarter
Nov 3
New

Hourly Weather History & Observations

Time (CDT) Temp. Dew Point Humidity Pressure Visibility Wind Dir Wind Speed Gust Speed Precip Events Conditions
12:53 AM 48.9 °F 46.9 °F 93% 30.09 in 10.0 mi South 3.5 mph - N/A   Clear
1:53 AM 48.0 °F 45.0 °F 89% 30.09 in 10.0 mi South 3.5 mph - N/A   Clear
2:53 AM 46.0 °F 44.1 °F 93% 30.09 in 10.0 mi Calm Calm - N/A   Clear
3:53 AM 45.0 °F 44.1 °F 97% 30.10 in 10.0 mi Calm Calm - N/A   Clear
4:53 AM 45.0 °F 43.0 °F 93% 30.10 in 10.0 mi Calm Calm - N/A   Clear
5:53 AM 41.0 °F 39.9 °F 96% 30.10 in 10.0 mi Calm Calm - N/A   Clear
6:53 AM 42.1 °F 41.0 °F 96% 30.09 in 10.0 mi Calm Calm - N/A   Clear
7:53 AM 43.0 °F 41.0 °F 93% 30.09 in 9.0 mi Calm Calm - N/A   Clear
8:53 AM 53.1 °F 48.0 °F 83% 30.09 in 10.0 mi Calm Calm - N/A   Clear
9:53 AM 60.1 °F 48.9 °F 67% 30.09 in 10.0 mi Calm Calm - N/A   Clear
10:53 AM 64.9 °F 46.9 °F 52% 30.08 in 10.0 mi SSW 5.8 mph - N/A   Clear
11:53 AM 66.9 °F 48.0 °F 51% 30.06 in 10.0 mi South 4.6 mph - N/A   Clear
12:53 PM 70.0 °F 46.9 °F 44% 30.04 in 10.0 mi Variable 6.9 mph - N/A   Clear
1:53 PM 72.0 °F 46.0 °F 40% 30.03 in 10.0 mi SSW 10.4 mph - N/A   Clear
2:53 PM 73.9 °F 46.9 °F 38% 30.01 in 10.0 mi South 6.9 mph - N/A   Clear
3:53 PM 73.9 °F 44.1 °F 34% 30.00 in 10.0 mi South 6.9 mph - N/A   Clear
4:53 PM 73.0 °F 45.0 °F 37% 29.98 in 10.0 mi South 3.5 mph - N/A   Clear
5:53 PM 57.9 °F 52.0 °F 81% 29.99 in 10.0 mi North 6.9 mph - N/A   Clear
6:53 PM 52.0 °F 50.0 °F 93% 30.00 in 10.0 mi Calm Calm - N/A   Clear
7:53 PM 48.9 °F 48.0 °F 97% 30.01 in 10.0 mi Calm Calm - N/A   Clear
8:53 PM 48.0 °F 46.9 °F 96% 30.01 in 8.0 mi Calm Calm - N/A   Clear
9:53 PM 46.0 °F 45.0 °F 96% 30.01 in 10.0 mi Calm Calm - N/A   Clear
10:53 PM 46.0 °F 45.0 °F 96% 30.01 in 6.0 mi Calm Calm - N/A   Clear
11:53 PM 44.1 °F 42.1 °F 93% 30.01 in 9.0 mi Calm Calm - N/A   Clear